Great Falls, MT

10:27 PM MST on January 23, 2017 (GMT -0700)
Great Falls International

Weather History for KGTF - July, 2014

Change the Weather History Date:

Monday, July 7, 2014

  Actual Average Record
Temperature  
Mean Temperature 67 °F 66 °F  
Max Temperature 79 °F 81 °F 97 °F (1954)
Min Temperature 55 °F 50 °F 41 °F (1993)
Degree Days  
Heating Degree Days 0 2  
Month to date heating degree days 3 19  
Since 1 June heating degree days 226 210  
Since 1 July heating degree days 3 19  
Cooling Degree Days 2 3  
Month to date cooling degree days 38 18  
Year to date cooling degree days 38 57  
Since 1 June cooling degree days 38 50  
Growing Degree Days 17 (Base 50)    
Moisture  
Dew Point 49 °F    
Average Humidity 58    
Maximum Humidity 86    
Minimum Humidity 30    
Precipitation  
Precipitation 0.01 in 0.06 in 0.97 in (1934)
Month to date precipitation 0.01 0.41  
Year to date precipitation 11.30 8.67  
Snow  
Snow 0.00 in 0.00 in T in (1993)
Month to date snowfall 0.0 0.0  
Since 1 June snowfall 0.0 0.3  
Since 1 July snowfall 0.0 0.0  
Snow Depth 0.00 in    
Sea Level Pressure  
Sea Level Pressure 30.11 in    
Wind  
Wind Speed 7 mph (North)    
Max Wind Speed 21 mph    
Max Gust Speed 25 mph    
Visibility 10 miles    
Events Rain    
T = Trace of Precipitation, MM = Missing Value Source: NWS Daily Summary

Daily Weather History Graph

Daily Weather History Graph

Search for Another Location

Airport or City:

Trip Planner

Search our weather history database for the weather conditions in past years. The results will help you decide how hot, cold, wet, or windy it might be!

Date:

Astronomy

Jul. 07, 2014 Rise Set
Actual Time 5:36 AM MDT 9:23 PM MDT
Civil Twilight 4:56 AM MDT 10:03 PM MDT
Nautical Twilight 4:03 AM MDT 10:57 PM MDT
Astronomical Twilight 2:44 AM MDT 12:14 AM MDT
Moon 4:20 PM MDT (7/7) 1:45 AM MDT (7/7)
Length of Visible Light 17h 06m
Length of Day
15h 47m
Waxing Gibbous, 73% of the Moon is Illuminated
Jul 7
Waxing Gibbous
Jul 12
Full
Jul 18
Last Quarter
Jul 26
New
Aug 3
First Quarter

Hourly Weather History & Observations

Time (MDT) Temp. Dew Point Humidity Pressure Visibility Wind Dir Wind Speed Gust Speed Precip Events Conditions
12:53 AM 59.0 °F 48.0 °F 67% 29.94 in 10.0 mi West 4.6 mph - N/A   Scattered Clouds
1:53 AM 59.0 °F 46.9 °F 64% 29.95 in 10.0 mi West 4.6 mph - N/A   Clear
2:53 AM 60.1 °F 46.9 °F 62% 29.96 in 10.0 mi West 9.2 mph - N/A   Clear
3:53 AM 60.1 °F 50.0 °F 69% 30.01 in 10.0 mi North 6.9 mph - N/A   Mostly Cloudy
4:53 AM 60.1 °F 52.0 °F 75% 30.05 in 10.0 mi NNW 15.0 mph - N/A   Partly Cloudy
5:53 AM 57.0 °F 52.0 °F 83% 30.11 in 10.0 mi North 19.6 mph - N/A   Overcast
6:32 AM 55.4 °F 53.6 °F 94% 30.20 in 10.0 mi NNE 10.4 mph - 0.01 in Rain Light Rain
6:53 AM 57.0 °F 54.0 °F 89% 30.12 in 10.0 mi North 5.8 mph - 0.01 in   Overcast
7:15 AM 57.2 °F 53.6 °F 88% 30.22 in 10.0 mi North 4.6 mph - N/A   Mostly Cloudy
7:53 AM 57.0 °F 52.0 °F 83% 30.14 in 10.0 mi Calm Calm - N/A   Overcast
8:53 AM 61.0 °F 53.1 °F 75% 30.16 in 10.0 mi WSW 5.8 mph - N/A   Mostly Cloudy
9:53 AM 63.0 °F 52.0 °F 67% 30.17 in 10.0 mi Variable 3.5 mph - N/A   Partly Cloudy
10:53 AM 66.0 °F 50.0 °F 56% 30.16 in 10.0 mi Calm Calm - N/A   Partly Cloudy
11:53 AM 69.1 °F 51.1 °F 53% 30.17 in 10.0 mi Variable 4.6 mph - N/A   Clear
12:53 PM 69.1 °F 50.0 °F 51% 30.18 in 10.0 mi Variable 6.9 mph - N/A   Scattered Clouds
1:53 PM 73.0 °F 50.0 °F 44% 30.16 in 10.0 mi Calm Calm - N/A   Mostly Cloudy
2:53 PM 77.0 °F 48.0 °F 36% 30.13 in 10.0 mi Variable 3.5 mph - N/A   Clear
3:53 PM 77.0 °F 46.0 °F 33% 30.12 in 10.0 mi East 8.1 mph - N/A   Mostly Cloudy
4:53 PM 79.0 °F 46.0 °F 31% 30.11 in 10.0 mi North 6.9 mph - N/A   Mostly Cloudy
5:53 PM 78.1 °F 45.0 °F 31% 30.11 in 10.0 mi North 9.2 mph - N/A   Clear
6:53 PM 77.0 °F 46.0 °F 33% 30.10 in 10.0 mi NNE 6.9 mph - N/A   Clear
7:53 PM 73.0 °F 46.9 °F 39% 30.11 in 10.0 mi NNE 5.8 mph - N/A   Partly Cloudy
8:53 PM 69.1 °F 46.0 °F 44% 30.11 in 10.0 mi NNE 6.9 mph - N/A   Clear
9:53 PM 63.0 °F 45.0 °F 52% 30.13 in 10.0 mi NE 8.1 mph - N/A   Clear
10:53 PM 66.0 °F 45.0 °F 47% 30.12 in 10.0 mi ENE 8.1 mph - N/A   Mostly Cloudy
11:53 PM 63.0 °F 45.0 °F 52% 30.12 in 10.0 mi ENE 8.1 mph - N/A   Clear